Date,Time,Wetness (Wet Dry or Ice),Wind Speed (m/s),Temperature (C),Humidity (%),Pressure (mb),Radiation (W/m^2)
2019-01-14,05:10:00,DRY,2.33,3.03,18.3,773.00,1.3
2019-01-14,05:15:00,DRY,2.45,3.00,20.0,773.00,1.1
2019-01-14,05:20:00,DRY,1.67,3.73,18.3,772.00,0.5
2019-01-14,05:25:00,DRY,1.65,3.95,17.5,773.00,1.6
2019-01-14,05:30:00,DRY,1.60,4.13,17.0,772.00,0.8
2019-01-14,05:35:00,DRY,1.60,4.05,17.0,772.00,1.1
2019-01-14,05:40:00,DRY,1.47,4.00,17.0,772.33,1.8
2019-01-14,05:45:00,DRY,1.30,3.95,17.0,773.00,0.5
2019-01-14,05:50:00,DRY,0.70,3.63,19.0,772.67,1.6
2019-01-14,05:55:00,DRY,0.90,3.75,18.0,772.50,1.4
2019-01-14,06:00:00,DRY,1.73,3.10,18.7,772.67,1.5
2019-01-14,06:05:00,DRY,1.75,2.65,19.0,772.50,1.9
2019-01-14,06:10:00,DRY,1.90,2.60,19.0,773.00,0.8
2019-01-14,06:15:00,DRY,1.75,2.45,19.5,773.00,1.1
2019-01-14,06:20:00,DRY,2.10,2.37,19.7,773.00,1.4
2019-01-14,06:25:00,DRY,2.35,2.30,19.0,773.00,1.0
2019-01-14,06:30:00,DRY,2.10,2.37,19.3,772.33,0.8
2019-01-14,06:35:00,DRY,2.25,2.60,19.0,772.50,1.5
2019-01-14,06:40:00,DRY,2.33,2.37,19.7,773.00,1.0
2019-01-14,06:45:00,DRY,2.00,2.40,20.0,773.00,1.6
2019-01-14,06:50:00,DRY,1.90,2.63,19.3,773.00,0.4
2019-01-14,06:55:00,DRY,1.95,3.05,19.0,773.00,2.4
2019-01-14,07:00:00,DRY,2.80,3.23,19.0,773.00,1.3
2019-01-14,07:05:00,DRY,2.40,2.85,19.5,773.00,0.7
2019-01-14,07:10:00,DRY,2.17,2.67,19.7,773.00,1.6
2019-01-14,07:15:00,DRY,1.80,3.15,18.5,773.00,0.8
2019-01-14,07:20:00,DRY,2.07,3.37,18.3,773.00,1.6
2019-01-14,07:25:00,DRY,1.50,3.10,18.5,773.00,1.9
2019-01-14,07:30:00,DRY,1.33,3.90,17.7,773.00,1.6
2019-01-14,07:35:00,DRY,2.05,2.70,19.5,773.00,1.6
2019-01-14,07:40:00,DRY,1.77,2.37,21.0,773.00,1.5
2019-01-14,07:45:00,DRY,1.85,2.40,21.0,773.00,2.4
2019-01-14,07:50:00,DRY,1.87,2.17,21.7,773.00,2.1
2019-01-14,07:55:00,DRY,2.35,2.30,22.0,773.00,2.9
2019-01-14,08:00:00,DRY,2.23,2.53,21.3,773.00,5.2
2019-01-14,08:05:00,DRY,2.15,2.40,22.0,773.00,6.5
2019-01-14,08:10:00,DRY,1.80,2.37,21.7,773.00,9.6
2019-01-14,08:15:00,DRY,1.95,2.55,21.5,773.00,11.3
2019-01-14,08:20:00,DRY,1.70,2.77,21.0,773.00,12.9
2019-01-14,08:25:00,DRY,1.25,2.45,21.5,773.00,16.8
2019-01-14,08:30:00,DRY,2.10,2.40,22.0,773.00,17.9
2019-01-14,08:35:00,DRY,0.85,2.75,21.0,773.00,21.2
2019-01-14,08:40:00,DRY,0.53,2.90,20.7,773.00,23.4
2019-01-14,08:45:00,DRY,0.40,3.60,20.0,773.00,73.5
2019-01-14,08:50:00,DRY,0.83,4.27,19.0,773.00,156.4
2019-01-14,08:55:00,DRY,1.00,4.35,18.0,773.00,174.3
2019-01-14,09:00:00,DRY,0.77,4.17,19.0,773.00,193.0
2019-01-14,09:05:00,DRY,0.90,4.50,18.0,773.00,214.3
2019-01-14,09:10:00,DRY,1.03,4.60,18.0,773.00,236.3
2019-01-14,09:15:00,DRY,0.35,5.05,17.5,773.00,256.1
2019-01-14,09:20:00,DRY,0.80,5.67,17.0,773.00,273.6
2019-01-14,09:25:00,DRY,0.95,5.60,17.0,773.00,294.0
2019-01-14,09:30:00,DRY,1.10,5.33,17.0,773.00,313.5
2019-01-14,09:35:00,DRY,1.35,5.15,17.5,773.00,333.8
2019-01-14,09:40:00,DRY,0.93,5.20,17.7,773.00,357.6
2019-01-14,09:45:00,DRY,1.90,5.10,17.5,773.00,392.9
2019-01-14,09:50:00,DRY,1.53,4.97,17.7,773.00,212.2
2019-01-14,09:55:00,DRY,0.95,4.70,18.0,773.00,356.8
2019-01-14,10:00:00,DRY,1.50,5.00,18.0,773.00,426.1
2019-01-14,10:05:00,DRY,1.10,5.30,17.5,773.00,333.2
2019-01-14,10:10:00,DRY,1.60,5.33,17.3,773.00,345.8
2019-01-14,10:15:00,DRY,1.45,5.25,17.0,773.00,306.5
2019-01-14,10:20:00,DRY,1.50,5.13,17.7,773.00,263.6
2019-01-14,10:25:00,DRY,1.95,5.05,17.5,773.00,453.1
2019-01-14,10:30:00,DRY,1.30,4.93,18.7,773.00,211.9
2019-01-14,10:35:00,DRY,1.55,4.85,19.0,773.00,494.6
2019-01-14,10:40:00,DRY,1.87,4.93,18.7,773.00,525.9
2019-01-14,10:45:00,DRY,1.80,4.85,18.5,773.50,528.0
2019-01-14,10:50:00,DRY,1.60,4.77,19.3,773.00,513.8
2019-01-14,10:55:00,DRY,1.90,4.65,20.5,773.50,571.2
2019-01-14,11:00:00,DRY,1.33,4.80,20.3,773.33,581.1
2019-01-14,11:05:00,DRY,1.85,5.00,20.5,773.50,583.5
2019-01-14,11:10:00,DRY,1.87,5.07,19.0,773.00,602.1
2019-01-14,11:15:00,DRY,1.45,5.35,18.5,773.00,613.5
2019-01-14,11:20:00,DRY,1.53,5.47,18.0,773.00,624.4
2019-01-14,11:25:00,DRY,2.00,5.30,19.5,773.00,644.9
2019-01-14,11:30:00,DRY,1.87,5.20,20.7,773.00,661.8
2019-01-14,11:35:00,DRY,2.70,5.00,21.0,773.00,665.0
2019-01-14,11:40:00,DRY,2.37,4.90,21.3,773.00,677.8
2019-01-14,11:45:00,DRY,2.10,4.75,22.0,773.00,555.4
2019-01-14,11:50:00,DRY,2.70,4.73,22.3,773.00,611.5
2019-01-14,11:55:00,DRY,2.95,4.80,22.0,773.00,589.5
2019-01-14,12:00:00,DRY,2.43,4.67,22.3,773.00,588.2
2019-01-14,12:05:00,DRY,2.40,4.50,21.5,773.00,503.8
2019-01-14,12:10:00,DRY,1.73,4.53,22.0,773.00,635.7
2019-01-14,12:15:00,DRY,1.85,5.10,21.0,773.00,562.0
2019-01-14,12:20:00,DRY,1.90,5.07,20.3,773.00,583.8
2019-01-14,12:25:00,DRY,1.70,5.00,21.0,773.00,687.6
2019-01-14,12:30:00,DRY,1.83,5.13,20.7,773.00,700.9
2019-01-14,12:35:00,DRY,2.15,5.25,22.0,773.00,763.2
2019-01-14,12:40:00,DRY,1.57,5.47,21.7,773.00,741.8
2019-01-14,12:45:00,DRY,2.15,5.45,19.5,773.00,701.7
2019-01-14,12:50:00,DRY,2.50,5.67,21.0,772.67,747.2
2019-01-14,12:55:00,DRY,2.05,5.70,21.0,772.50,752.5
2019-01-14,13:00:00,DRY,2.23,5.53,22.7,772.00,703.0
2019-01-14,13:05:00,DRY,2.15,5.40,23.5,772.00,737.1
2019-01-14,13:10:00,DRY,2.20,5.47,23.7,772.00,673.6
2019-01-14,13:15:00,DRY,2.10,5.75,23.5,772.00,677.0
2019-01-14,13:20:00,DRY,2.70,5.63,27.7,772.00,721.3
2019-01-14,13:25:00,DRY,2.55,5.55,34.0,772.00,683.0
2019-01-14,13:30:00,DRY,1.70,5.20,30.0,772.00,663.2
2019-01-14,13:35:00,DRY,2.40,5.30,30.0,772.00,665.0
2019-01-14,13:40:00,DRY,2.30,5.23,31.7,772.00,719.6
2019-01-14,13:45:00,DRY,2.15,5.35,32.5,772.00,745.5
2019-01-14,13:50:00,DRY,1.80,5.10,35.7,772.00,708.1
2019-01-14,13:55:00,DRY,1.80,5.25,35.5,772.00,642.2
2019-01-14,14:00:00,DRY,1.60,5.23,36.3,772.00,679.4
2019-01-14,14:05:00,DRY,1.65,5.15,36.5,772.00,705.5
2019-01-14,14:10:00,DRY,1.70,5.30,35.7,772.00,722.9
2019-01-14,14:15:00,DRY,2.50,5.40,41.0,772.00,715.3
2019-01-14,14:20:00,DRY,1.90,5.53,37.3,772.00,718.8
2019-01-14,14:25:00,DRY,1.85,5.15,36.5,772.00,712.5
2019-01-14,14:30:00,DRY,2.10,5.40,36.0,772.00,712.2
2019-01-14,14:35:00,DRY,2.00,5.40,34.0,772.00,687.6
2019-01-14,14:40:00,DRY,3.07,5.30,33.0,772.00,677.1
2019-01-14,14:45:00,DRY,2.15,5.15,32.5,772.00,688.5
2019-01-14,14:50:00,DRY,2.43,5.30,29.0,772.00,676.5
2019-01-14,14:55:00,DRY,1.80,5.30,30.5,772.00,565.5
2019-01-14,15:00:00,DRY,1.93,5.10,30.3,772.00,578.4
2019-01-14,15:05:00,DRY,1.25,4.90,30.5,772.00,574.5
2019-01-14,15:10:00,DRY,1.17,5.17,29.3,772.00,610.0
2019-01-14,15:15:00,DRY,1.05,5.20,31.5,772.00,575.4
2019-01-14,15:20:00,DRY,1.87,5.10,35.0,772.00,611.0
2019-01-14,15:25:00,DRY,1.40,4.60,41.5,772.00,545.6
2019-01-14,15:30:00,DRY,0.87,5.33,40.0,772.00,590.4
2019-01-14,15:35:00,DRY,1.15,5.20,37.0,772.00,529.5
2019-01-14,15:40:00,DRY,2.17,4.83,38.7,772.00,385.4
2019-01-14,15:45:00,DRY,1.35,4.60,36.5,772.00,199.7
2019-01-14,15:50:00,DRY,1.53,4.43,38.3,772.00,375.1
2019-01-14,15:55:00,DRY,2.55,4.45,39.0,772.00,430.8
2019-01-14,16:00:00,DRY,1.80,4.47,36.7,772.00,518.5
2019-01-14,16:05:00,DRY,1.15,4.70,37.5,772.00,541.5
2019-01-14,16:10:00,DRY,1.37,4.80,34.3,772.00,451.1
2019-01-14,16:15:00,DRY,1.05,4.65,35.5,772.00,439.5
2019-01-14,16:20:00,DRY,0.63,4.63,49.3,772.00,459.0
2019-01-14,16:25:00,DRY,0.60,4.85,54.0,772.00,432.0
2019-01-14,16:30:00,DRY,1.47,4.60,72.0,772.00,411.5
2019-01-14,16:35:00,DRY,0.80,4.75,72.5,772.00,388.7
2019-01-14,16:40:00,DRY,1.20,4.90,70.0,772.00,379.6
2019-01-14,16:45:00,DRY,1.05,4.80,41.5,772.00,203.7
2019-01-14,16:50:00,DRY,0.73,4.17,38.3,772.00,214.6
2019-01-14,16:55:00,DRY,1.40,4.50,67.5,772.00,324.9
2019-01-14,17:00:00,DRY,1.37,4.60,71.0,772.00,306.1
2019-01-14,17:05:00,DRY,1.25,4.20,43.0,772.00,288.9
2019-01-14,17:10:00,DRY,0.80,4.07,38.7,772.00,275.3
2019-01-14,17:15:00,DRY,0.45,4.20,36.5,772.00,258.1
2019-01-14,17:20:00,DRY,0.47,4.50,37.7,772.00,241.9
2019-01-14,17:25:00,DRY,0.45,4.65,37.5,772.00,222.8
2019-01-14,17:30:00,DRY,0.67,4.50,59.7,772.00,194.4
2019-01-14,17:35:00,DRY,0.70,4.30,57.5,772.00,188.9
2019-01-14,17:40:00,DRY,0.53,4.30,54.3,772.00,173.5
2019-01-14,17:45:00,DRY,0.90,4.25,51.0,772.00,154.6
2019-01-14,17:50:00,DRY,0.93,4.07,50.0,772.00,136.5
2019-01-14,17:55:00,DRY,0.90,4.00,43.0,772.00,116.7
2019-01-14,18:00:00,DRY,0.93,4.10,34.3,772.00,92.3
2019-01-14,18:05:00,DRY,1.05,4.00,31.5,772.00,74.6
2019-01-14,18:10:00,DRY,0.57,3.97,39.7,772.00,55.2
2019-01-14,18:15:00,DRY,0.50,4.10,44.5,772.00,39.5
2019-01-14,18:20:00,DRY,0.70,4.00,45.0,772.00,25.9
2019-01-14,18:25:00,DRY,0.65,4.05,50.0,772.00,16.6
2019-01-14,18:30:00,DRY,0.90,4.10,48.3,772.00,11.0
2019-01-14,18:35:00,DRY,1.35,3.60,78.5,772.00,6.3
2019-01-14,18:40:00,DRY,1.00,3.30,81.0,772.00,4.4
2019-01-14,18:45:00,DRY,1.05,3.20,81.5,772.00,3.2
2019-01-14,18:50:00,DRY,1.43,3.13,81.0,772.00,2.0
2019-01-14,18:55:00,DRY,1.65,3.10,83.5,772.00,1.3
2019-01-14,19:00:00,DRY,2.33,3.13,83.0,772.00,1.2
2019-01-14,19:05:00,DRY,2.35,3.10,84.0,772.00,1.6
2019-01-14,19:10:00,DRY,2.10,3.07,86.3,772.00,1.6
2019-01-14,19:15:00,DRY,2.05,3.00,89.5,772.00,1.9
2019-01-14,19:20:00,DRY,1.83,2.80,88.0,772.00,2.0
2019-01-14,19:25:00,DRY,1.80,2.75,88.0,772.00,1.7
2019-01-14,19:30:00,DRY,2.47,2.50,92.0,772.00,1.8
2019-01-14,19:35:00,DRY,2.25,2.60,87.0,772.00,1.0
2019-01-14,19:40:00,DRY,1.83,2.57,83.7,772.00,1.9
2019-01-14,19:45:00,DRY,0.85,2.45,72.0,772.00,1.2
2019-01-14,19:50:00,DRY,0.33,2.77,65.3,772.00,1.2
2019-01-14,19:55:00,DRY,0.45,2.75,59.0,772.00,2.2
2019-01-14,20:00:00,DRY,0.20,2.57,61.3,772.00,1.0
2019-01-14,20:05:00,DRY,0.45,2.55,65.5,772.00,0.7
2019-01-14,20:10:00,DRY,0.20,2.67,65.7,772.00,1.1
2019-01-14,20:15:00,DRY,0.45,2.65,57.0,772.00,1.5
2019-01-14,20:20:00,DRY,0.53,2.60,59.7,772.00,1.2
2019-01-14,20:25:00,DRY,0.10,2.35,62.0,772.00,1.0
2019-01-14,20:30:00,DRY,0.23,2.43,61.7,772.00,1.3
2019-01-14,20:35:00,DRY,0.25,2.55,57.5,772.00,1.2
2019-01-14,20:40:00,DRY,0.47,2.50,56.7,772.00,1.6
2019-01-14,20:45:00,DRY,0.35,2.45,56.0,772.00,0.9
2019-01-14,20:50:00,DRY,0.47,2.50,55.0,772.00,1.2
2019-01-14,20:55:00,DRY,0.50,2.70,54.5,772.00,0.7
2019-01-14,21:00:00,DRY,0.63,3.03,48.7,772.33,1.0
2019-01-14,21:05:00,DRY,0.95,3.20,46.0,772.50,0.9
2019-01-14,21:10:00,DRY,0.93,3.10,44.3,772.67,2.2
2019-01-14,21:15:00,DRY,0.80,3.05,45.0,773.00,1.4
2019-01-14,21:20:00,DRY,0.57,3.17,45.0,772.67,1.8
2019-01-14,21:25:00,DRY,0.40,3.20,45.0,773.00,1.4
2019-01-14,21:30:00,DRY,1.10,3.37,42.3,773.00,1.6
2019-01-14,21:35:00,DRY,1.40,3.00,38.0,773.00,1.9
2019-01-14,21:40:00,DRY,1.27,2.70,36.3,773.00,1.1
2019-01-14,21:45:00,DRY,1.15,2.60,33.5,773.00,1.0
2019-01-14,21:50:00,DRY,1.33,2.67,30.7,773.00,1.1
2019-01-14,21:55:00,DRY,1.50,2.95,28.5,773.00,1.2
2019-01-14,22:00:00,DRY,1.43,2.90,29.7,773.00,1.6
2019-01-14,22:05:00,DRY,1.35,2.70,31.0,773.00,0.6
2019-01-14,22:10:00,DRY,1.10,2.57,30.3,773.00,1.4
2019-01-14,22:15:00,DRY,0.80,2.60,28.5,773.00,1.4
2019-01-14,22:20:00,DRY,0.63,2.60,27.7,773.00,1.4
2019-01-14,22:25:00,DRY,0.80,2.75,26.0,773.00,1.1
2019-01-14,22:30:00,DRY,0.80,3.03,25.3,773.00,1.0
2019-01-14,22:35:00,DRY,1.20,3.60,24.0,773.00,2.7
2019-01-14,22:40:00,DRY,1.00,3.73,24.3,773.00,1.2
2019-01-14,22:45:00,DRY,0.75,3.45,24.0,773.00,0.7
2019-01-14,22:50:00,DRY,0.57,2.83,26.0,773.00,2.0
2019-01-14,22:55:00,DRY,0.35,2.70,27.0,773.00,1.0
2019-01-14,23:00:00,DRY,0.33,2.93,26.0,773.00,1.3
2019-01-14,23:05:00,DRY,0.50,2.90,25.0,773.00,1.2
2019-01-14,23:10:00,DRY,0.60,2.63,26.0,773.00,0.7
2019-01-14,23:15:00,DRY,0.75,2.50,27.5,773.00,1.2
2019-01-14,23:20:00,DRY,1.33,2.60,30.3,773.00,1.3
2019-01-14,23:25:00,DRY,1.00,2.75,34.0,773.00,0.8
2019-01-14,23:30:00,DRY,0.60,2.63,33.3,773.00,1.0
2019-01-14,23:35:00,DRY,0.55,2.75,28.5,773.00,1.2
2019-01-14,23:40:00,DRY,0.37,2.90,26.3,773.00,2.1
2019-01-14,23:45:00,DRY,0.50,2.85,24.5,773.00,0.5
2019-01-14,23:50:00,DRY,0.50,2.67,25.0,773.00,1.2
2019-01-14,23:55:00,DRY,0.75,2.30,26.0,773.00,2.5
2019-01-15,00:00:00,DRY,0.70,2.03,29.3,773.00,1.8
2019-01-15,00:05:00,DRY,1.00,1.80,36.5,773.00,1.4
2019-01-15,00:10:00,DRY,0.77,1.83,38.7,773.00,1.4
2019-01-15,00:15:00,DRY,0.75,1.95,36.5,773.00,0.9
2019-01-15,00:20:00,DRY,0.90,2.17,37.0,773.00,1.1
2019-01-15,00:25:00,DRY,0.70,2.10,39.5,773.00,2.2
2019-01-15,00:30:00,DRY,0.83,2.03,31.0,773.00,0.8
2019-01-15,00:35:00,DRY,0.55,2.00,26.5,773.00,1.6
2019-01-15,00:40:00,DRY,0.93,2.00,26.0,773.00,1.2
2019-01-15,00:45:00,DRY,0.80,2.05,26.0,773.00,1.6
2019-01-15,00:50:00,DRY,1.03,2.13,25.0,773.00,1.5
2019-01-15,00:55:00,DRY,2.15,2.50,23.5,773.00,1.4
2019-01-15,01:00:00,DRY,2.57,3.13,23.0,773.00,1.8
2019-01-15,01:05:00,DRY,1.75,3.35,23.0,773.00,1.2
2019-01-15,01:10:00,DRY,0.97,3.27,23.0,773.00,1.1
2019-01-15,01:15:00,DRY,1.90,3.25,23.0,772.50,1.1
2019-01-15,01:20:00,DRY,1.07,3.13,23.0,773.00,0.7
2019-01-15,01:25:00,DRY,1.25,2.85,24.0,772.50,1.4
2019-01-15,01:30:00,DRY,0.85,2.75,24.5,773.00,0.9
2019-01-15,01:35:00,DRY,1.40,2.80,26.5,773.00,0.4
2019-01-15,01:40:00,DRY,1.63,2.80,28.7,773.00,1.5
2019-01-15,01:45:00,DRY,1.60,2.95,31.5,772.50,0.6
2019-01-15,01:50:00,DRY,1.17,2.90,31.7,772.67,1.3
2019-01-15,01:55:00,DRY,1.45,2.90,29.5,772.50,0.2
2019-01-15,02:00:00,DRY,1.93,3.10,26.7,773.00,1.8
2019-01-15,02:05:00,DRY,2.85,3.05,24.5,772.50,0.9
2019-01-15,02:10:00,DRY,2.30,2.77,24.7,772.67,1.7
2019-01-15,02:15:00,DRY,3.30,2.95,23.5,772.50,1.7
2019-01-15,02:20:00,DRY,2.93,3.00,23.0,772.33,1.0
2019-01-15,02:25:00,DRY,2.85,3.00,22.0,772.00,1.0
2019-01-15,02:30:00,DRY,2.97,3.03,21.3,772.67,1.3
2019-01-15,02:35:00,DRY,3.00,3.00,21.0,772.00,1.4
2019-01-15,02:40:00,DRY,3.23,2.97,20.3,772.67,1.1
2019-01-15,02:45:00,DRY,2.75,3.00,20.0,772.50,1.1
2019-01-15,02:50:00,DRY,3.43,2.90,20.7,772.00,1.1
2019-01-15,02:55:00,DRY,2.90,2.65,21.0,772.00,0.9
2019-01-15,03:00:00,DRY,3.57,2.73,21.0,772.00,1.0
2019-01-15,03:05:00,DRY,2.90,2.90,20.0,772.00,0.3
2019-01-15,03:10:00,DRY,3.10,2.80,20.3,772.00,1.0
2019-01-15,03:15:00,DRY,3.70,2.55,21.0,772.00,1.1
2019-01-15,03:20:00,DRY,3.80,2.67,21.3,772.00,1.3
2019-01-15,03:25:00,DRY,3.40,2.75,23.0,772.00,0.8
2019-01-15,03:30:00,DRY,2.70,2.77,23.7,772.00,1.0
2019-01-15,03:35:00,DRY,3.00,2.80,22.0,772.00,1.0
2019-01-15,03:40:00,DRY,3.53,2.67,21.7,772.00,1.2
2019-01-15,03:45:00,DRY,2.60,2.50,23.5,772.00,1.2
2019-01-15,03:50:00,DRY,3.13,2.47,24.0,772.67,1.1
2019-01-15,03:55:00,DRY,3.65,2.65,24.0,772.50,0.9
2019-01-15,04:00:00,DRY,3.13,2.33,24.7,772.00,1.0
2019-01-15,04:05:00,DRY,2.65,2.55,25.5,772.50,1.0
2019-01-15,04:10:00,DRY,3.13,2.47,23.7,772.00,0.9
2019-01-15,04:15:00,DRY,3.10,2.60,22.5,772.00,0.8
2019-01-15,04:20:00,DRY,3.13,2.43,21.7,772.00,1.2
2019-01-15,04:25:00,DRY,2.80,2.60,20.0,772.00,1.2
2019-01-15,04:30:00,DRY,3.13,2.40,20.0,772.00,1.8
2019-01-15,04:35:00,DRY,2.50,2.40,20.0,772.00,2.0
2019-01-15,04:40:00,DRY,2.97,2.43,19.0,772.00,1.8
2019-01-15,04:45:00,DRY,3.10,2.45,19.0,772.00,0.7
2019-01-15,04:50:00,DRY,2.57,2.63,18.0,772.00,1.0
2019-01-15,04:55:00,DRY,2.80,2.85,18.0,772.00,1.6
2019-01-15,05:00:00,DRY,3.07,2.97,17.7,772.00,1.0
2019-01-15,05:05:00,DRY,2.85,3.10,17.5,772.00,1.1
2019-01-15,05:10:00,DRY,3.10,3.13,17.0,772.00,1.3
2019-01-15,05:15:00,DRY,3.10,3.00,17.0,772.00,1.4
2019-01-15,05:20:00,DRY,3.37,2.90,18.0,772.00,2.3
2019-01-15,05:25:00,DRY,3.35,2.85,19.0,772.00,0.9
2019-01-15,05:30:00,DRY,3.57,2.77,18.7,772.00,1.1
2019-01-15,05:35:00,DRY,3.15,2.90,18.0,772.00,1.6
2019-01-15,05:40:00,DRY,3.37,2.77,18.3,772.00,1.1
2019-01-15,05:45:00,DRY,3.55,2.65,19.5,772.00,1.3
2019-01-15,05:50:00,DRY,3.57,2.60,19.3,772.00,1.4
2019-01-15,05:55:00,DRY,3.85,2.60,19.0,772.00,0.7
2019-01-15,06:00:00,DRY,3.93,2.57,19.3,772.00,1.0
2019-01-15,06:05:00,DRY,4.00,2.50,19.0,772.00,1.1
2019-01-15,06:10:00,DRY,3.83,2.63,18.3,772.00,1.1
2019-01-15,06:15:00,DRY,4.20,2.40,19.0,772.00,1.6
2019-01-15,06:20:00,DRY,3.93,2.43,19.7,772.00,1.5
2019-01-15,06:25:00,DRY,3.80,2.45,19.0,772.00,0.9
2019-01-15,06:30:00,DRY,4.37,2.53,19.0,772.00,1.2
2019-01-15,06:35:00,DRY,4.15,2.45,19.0,772.00,1.1
2019-01-15,06:40:00,DRY,4.10,2.47,18.7,772.00,1.0
2019-01-15,06:45:00,DRY,4.50,2.55,18.5,772.00,1.1
2019-01-15,06:50:00,DRY,4.63,2.47,18.3,772.00,1.1
2019-01-15,06:55:00,DRY,3.70,2.55,18.0,772.00,1.1
2019-01-15,07:00:00,DRY,3.90,2.57,18.0,772.33,1.0
2019-01-15,07:05:00,DRY,4.15,2.55,18.0,772.50,1.1
2019-01-15,07:10:00,DRY,3.73,2.33,18.7,772.33,0.5
2019-01-15,07:15:00,DRY,4.55,2.25,19.0,773.00,1.2
2019-01-15,07:20:00,DRY,4.50,2.40,18.7,773.00,1.5
2019-01-15,07:25:00,DRY,4.15,2.50,18.5,773.00,1.4
2019-01-15,07:30:00,DRY,3.87,2.23,19.0,773.00,1.1
2019-01-15,07:35:00,DRY,3.95,2.00,19.0,773.00,1.2
2019-01-15,07:40:00,DRY,3.97,2.07,19.0,773.00,1.3
2019-01-15,07:45:00,DRY,3.70,2.15,19.0,773.00,1.5
2019-01-15,07:50:00,DRY,4.13,2.20,18.7,773.00,1.7
2019-01-15,07:55:00,DRY,3.55,2.35,18.5,773.00,2.6
2019-01-15,08:00:00,DRY,3.67,2.13,19.0,773.00,3.9
2019-01-15,08:05:00,DRY,3.65,2.20,18.5,773.00,6.1
2019-01-15,08:10:00,DRY,3.60,2.23,18.0,773.00,9.3
2019-01-15,08:15:00,DRY,4.50,2.10,19.0,773.00,12.0
2019-01-15,08:20:00,DRY,3.93,2.20,18.7,773.00,14.9
2019-01-15,08:25:00,DRY,3.55,2.15,19.0,773.00,15.7
2019-01-15,08:30:00,DRY,3.70,2.13,19.0,773.00,17.8
2019-01-15,08:35:00,DRY,3.70,2.15,19.0,773.00,19.6
2019-01-15,08:40:00,DRY,3.33,2.13,19.0,773.00,21.9
2019-01-15,08:45:00,DRY,3.85,2.05,19.0,773.00,81.7
2019-01-15,08:50:00,DRY,3.47,2.07,19.0,773.00,160.8
2019-01-15,08:55:00,DRY,3.90,2.20,18.5,773.00,178.3
2019-01-15,09:00:00,DRY,4.13,2.53,18.0,773.00,197.1
2019-01-15,09:05:00,DRY,2.75,2.45,18.0,773.00,215.9
2019-01-15,09:10:00,DRY,3.43,2.20,19.0,773.00,234.8
2019-01-15,09:15:00,DRY,3.75,2.20,19.0,773.00,253.7
2019-01-15,09:20:00,DRY,3.33,2.23,18.7,773.00,271.7
2019-01-15,09:25:00,DRY,3.15,2.40,18.0,773.00,289.5
2019-01-15,09:30:00,DRY,3.33,2.43,18.0,773.00,307.4
2019-01-15,09:35:00,DRY,3.65,2.50,18.0,773.00,326.4
2019-01-15,09:40:00,DRY,4.03,2.77,16.7,773.00,343.9
2019-01-15,09:45:00,DRY,3.45,3.05,16.0,773.00,362.0
2019-01-15,09:50:00,DRY,2.70,3.10,16.0,773.00,379.3
2019-01-15,09:55:00,DRY,3.90,3.15,15.5,773.00,396.9
2019-01-15,10:00:00,DRY,3.07,3.23,14.7,773.00,413.8
2019-01-15,10:05:00,DRY,3.30,3.35,15.0,773.00,429.9
2019-01-15,10:10:00,DRY,2.70,3.50,15.0,773.00,446.8
2019-01-15,10:15:00,DRY,2.90,3.50,15.5,773.00,462.3
2019-01-15,10:20:00,DRY,2.47,3.40,16.3,773.00,477.6
2019-01-15,10:25:00,DRY,3.15,3.40,15.0,773.50,492.6
2019-01-15,10:30:00,DRY,2.50,3.60,16.0,773.67,507.9
2019-01-15,10:35:00,DRY,2.55,3.80,16.0,774.00,521.5
2019-01-15,10:40:00,DRY,3.70,3.67,16.3,774.00,537.3
2019-01-15,10:45:00,DRY,3.50,3.70,16.5,774.00,550.5
2019-01-15,10:50:00,DRY,3.23,3.80,16.3,774.00,564.1
2019-01-15,10:55:00,DRY,3.65,3.95,15.5,774.00,577.2
2019-01-15,11:00:00,DRY,2.87,4.10,15.7,774.00,589.7
2019-01-15,11:05:00,DRY,2.00,4.15,15.5,774.00,602.0
2019-01-15,11:10:00,DRY,2.70,4.33,15.7,774.00,614.4
2019-01-15,11:15:00,DRY,2.20,4.45,14.5,774.00,625.7
2019-01-15,11:20:00,DRY,2.43,4.47,14.3,774.00,636.8
2019-01-15,11:25:00,DRY,3.20,4.70,14.5,774.00,648.1
2019-01-15,11:30:00,DRY,2.30,4.65,15.0,774.00,660.1
2019-01-15,11:35:00,DRY,2.45,4.70,14.0,774.00,668.0
2019-01-15,11:40:00,DRY,1.57,5.00,14.7,774.00,677.7
2019-01-15,11:45:00,DRY,2.90,5.10,14.5,774.00,686.6
2019-01-15,11:50:00,DRY,2.57,4.93,15.0,774.00,695.4
2019-01-15,11:55:00,DRY,2.75,5.00,15.5,774.00,703.2
2019-01-15,12:00:00,DRY,2.33,5.03,13.7,774.00,710.8
2019-01-15,12:05:00,DRY,2.40,5.05,14.5,774.00,716.9
2019-01-15,12:10:00,DRY,2.07,5.10,15.0,773.67,725.4
2019-01-15,12:15:00,DRY,2.70,5.30,15.0,773.50,730.7
2019-01-15,12:20:00,DRY,1.80,5.17,16.0,773.00,736.7
2019-01-15,12:25:00,DRY,2.35,5.35,16.5,773.00,741.2
2019-01-15,12:30:00,DRY,1.67,5.43,16.0,773.00,747.5
2019-01-15,12:35:00,DRY,1.60,5.50,16.5,773.00,753.0
2019-01-15,12:40:00,DRY,1.17,5.53,18.0,773.00,755.0
2019-01-15,12:45:00,DRY,1.35,5.85,20.0,773.00,761.5
2019-01-15,12:50:00,DRY,2.47,5.57,18.3,773.00,761.1
2019-01-15,12:55:00,DRY,1.55,5.65,18.5,773.00,762.0
2019-01-15,13:00:00,DRY,2.23,5.60,20.7,773.00,765.5
2019-01-15,13:05:00,DRY,2.25,5.65,23.0,773.00,768.5
2019-01-15,13:10:00,DRY,2.23,5.57,27.7,773.00,769.1
2019-01-15,13:15:00,DRY,3.45,5.65,22.5,773.00,769.1
2019-01-15,13:20:00,DRY,1.90,5.63,22.3,773.00,768.6
2019-01-15,13:25:00,DRY,0.85,5.95,23.5,773.00,769.7
2019-01-15,13:30:00,DRY,1.40,6.10,27.0,773.00,765.4
2019-01-15,13:35:00,DRY,1.40,6.10,29.0,773.00,762.4
2019-01-15,13:40:00,DRY,1.63,5.90,36.3,773.00,761.1
2019-01-15,13:45:00,DRY,2.05,6.10,30.0,773.00,767.5
2019-01-15,13:50:00,DRY,2.03,5.83,36.3,773.00,763.4
2019-01-15,13:55:00,DRY,2.15,5.85,35.0,773.00,745.6
2019-01-15,14:00:00,DRY,2.20,5.70,36.3,773.00,444.4
2019-01-15,14:05:00,DRY,2.50,5.50,37.5,773.00,245.2
2019-01-15,14:10:00,DRY,1.70,5.60,44.0,773.00,687.8
2019-01-15,14:15:00,DRY,2.15,5.85,42.0,773.00,759.1
2019-01-15,14:20:00,DRY,2.25,5.95,42.0,773.00,688.5
2019-01-15,14:25:00,DRY,2.25,5.80,50.5,773.00,602.3
2019-01-15,14:30:00,DRY,1.67,5.53,51.3,773.00,635.6
2019-01-15,14:35:00,DRY,1.90,5.65,55.5,773.00,757.7
2019-01-15,14:40:00,DRY,1.77,5.80,52.0,773.00,747.7
2019-01-15,14:45:00,DRY,2.35,5.95,52.0,773.00,715.2
2019-01-15,14:50:00,DRY,2.17,5.77,47.0,773.00,719.6
2019-01-15,14:55:00,DRY,1.45,5.95,36.0,773.00,605.9
2019-01-15,15:00:00,DRY,2.17,5.90,35.7,773.00,682.8
2019-01-15,15:05:00,DRY,2.55,5.80,34.5,773.00,674.2
2019-01-15,15:10:00,DRY,2.47,5.83,39.7,773.00,662.6
2019-01-15,15:15:00,DRY,1.85,5.55,40.5,773.00,655.5
2019-01-15,15:20:00,DRY,0.97,5.83,40.3,773.00,636.9
2019-01-15,15:25:00,DRY,1.70,5.75,42.5,773.00,627.5
2019-01-15,15:30:00,DRY,1.57,5.77,42.3,773.00,613.2
2019-01-15,15:35:00,DRY,1.60,5.85,43.0,773.00,603.1
2019-01-15,15:40:00,DRY,2.07,5.73,31.7,773.00,582.8
2019-01-15,15:45:00,DRY,2.20,5.80,24.0,773.00,574.8
2019-01-15,15:50:00,DRY,2.30,5.60,28.0,773.00,577.0
2019-01-15,15:55:00,DRY,1.65,5.75,25.5,773.00,540.5
2019-01-15,16:00:00,DRY,1.67,5.63,25.7,773.00,418.0
2019-01-15,16:05:00,DRY,1.35,5.50,29.0,773.00,75.2
2019-01-15,16:10:00,DRY,1.37,5.30,25.7,773.00,349.3
2019-01-15,16:15:00,DRY,1.65,5.35,19.0,773.00,491.0
2019-01-15,16:20:00,DRY,1.27,5.37,21.0,773.00,157.5
2019-01-15,16:25:00,DRY,0.90,5.35,19.0,773.00,233.8
2019-01-15,16:30:00,DRY,1.37,5.47,18.7,773.00,197.0
2019-01-15,16:35:00,DRY,1.15,5.25,19.5,773.00,64.3
2019-01-15,16:40:00,DRY,1.47,5.03,18.3,773.00,158.1
2019-01-15,16:45:00,DRY,1.90,5.00,19.0,773.00,226.6
2019-01-15,16:50:00,DRY,2.10,5.10,14.3,773.00,219.3
2019-01-15,16:55:00,DRY,2.00,5.10,15.5,773.00,213.8
2019-01-15,17:00:00,DRY,1.73,4.97,17.3,773.00,87.5
2019-01-15,17:05:00,DRY,2.15,4.80,19.0,773.00,293.9
2019-01-15,17:10:00,DRY,1.63,4.93,21.3,773.00,253.9
2019-01-15,17:15:00,DRY,1.30,4.90,23.5,773.00,81.8
2019-01-15,17:20:00,DRY,1.10,4.67,26.0,773.00,241.5
2019-01-15,17:25:00,DRY,1.90,4.70,19.0,773.00,223.7
2019-01-15,17:30:00,DRY,2.67,4.60,19.7,773.00,173.2
2019-01-15,17:35:00,DRY,2.25,4.60,15.0,773.00,166.4
2019-01-15,17:40:00,DRY,2.03,4.77,16.3,773.00,174.2
2019-01-15,17:45:00,DRY,1.50,4.80,19.5,773.00,124.2
2019-01-15,17:50:00,DRY,2.40,4.70,14.7,773.00,132.9
2019-01-15,17:55:00,DRY,2.25,4.65,15.0,773.00,106.6
2019-01-15,18:00:00,DRY,2.40,4.60,17.0,773.00,72.7
2019-01-15,18:05:00,DRY,3.05,4.65,17.0,773.00,51.0
2019-01-15,18:10:00,DRY,1.87,4.53,14.7,773.00,37.0
2019-01-15,18:15:00,DRY,2.80,4.40,14.0,773.00,27.7
2019-01-15,18:20:00,DRY,2.40,4.40,14.3,773.00,22.4
2019-01-15,18:25:00,DRY,2.75,4.30,16.0,773.00,15.6
2019-01-15,18:30:00,DRY,2.83,4.13,17.3,773.33,9.5
2019-01-15,18:35:00,DRY,3.00,3.95,15.0,773.00,4.6
2019-01-15,18:40:00,DRY,2.60,3.93,14.0,773.33,3.0
2019-01-15,18:45:00,DRY,2.60,3.80,14.0,774.00,2.0
2019-01-15,18:50:00,DRY,3.37,3.90,15.0,774.00,1.6
2019-01-15,18:55:00,DRY,3.05,3.75,16.5,773.50,1.1
2019-01-15,19:00:00,DRY,3.07,3.63,16.3,773.67,1.5
2019-01-15,19:05:00,DRY,3.10,3.65,15.5,773.50,1.1
2019-01-15,19:10:00,DRY,3.33,3.67,14.7,774.00,1.1
2019-01-15,19:15:00,DRY,2.50,3.70,16.0,774.00,0.8
2019-01-15,19:20:00,DRY,2.23,4.03,16.0,774.00,1.4
2019-01-15,19:25:00,DRY,2.70,4.20,17.0,774.00,1.5
2019-01-15,19:30:00,DRY,1.90,4.33,16.7,774.00,0.9
2019-01-15,19:35:00,DRY,1.75,4.30,17.0,774.00,2.4
2019-01-15,19:40:00,DRY,2.23,4.33,17.0,774.00,1.7
2019-01-15,19:45:00,DRY,2.00,4.20,17.0,774.00,0.3
2019-01-15,19:50:00,DRY,2.47,4.17,18.0,774.00,1.5
2019-01-15,19:55:00,DRY,2.30,3.95,18.0,774.00,1.6
2019-01-15,20:00:00,DRY,2.57,3.80,18.0,774.00,1.1
2019-01-15,20:05:00,DRY,1.80,3.75,18.5,774.00,0.9